Location: Berg
(47.2344°N, 9.5296°E)
Time: 22:49:03
(UTC+00:00)

Cosmos 1844 - Pass Details

Date: 24 January 2021
Orbit: 821 x 869 km, 70.9° (Epoch: 04 March)

Event Time Altitude Azimuth Distance (km) Brightness Sun altitude
Rises 16:50:00 0° 185° (S) 3,374 7.2 -6.7°
Reaches altitude 10° 16:52:30 10° 179° (S) 2,451 6.4 -7.1°
Maximum altitude 16:57:50 45° 108° (ESE) 1,141 4.1 -7.9°
Drops below altitude 10° 17:03:15 10° 38° (NE) 2,498 5.7 -8.8°
Enters shadow 17:04:45 - 34° (NE) 3,047 6.1 -9.1°
